Hutchinson, KS

7:19 AM CST on February 19, 2017 (GMT -0600)
Hutchinson Municipal

Weather History for KHUT - July, 2013

Change the Weather History Date:

Sunday, July 7, 2013

  Actual Average Record
Temperature  
Mean Temperature 87 °F -  
Max Temperature 100 °F 89 °F 106 °F (2001)
Min Temperature 75 °F 65 °F 55 °F (2004)
Cooling Degree Days 22    
Growing Degree Days 37 (Base 50)    
Moisture  
Dew Point 60 °F    
Average Humidity 44    
Maximum Humidity 64    
Minimum Humidity 23    
Precipitation  
Precipitation 0.00 in - - ()
Sea Level Pressure  
Sea Level Pressure 29.86 in    
Wind  
Wind Speed 16 mph (South)    
Max Wind Speed 23 mph    
Max Gust Speed 32 mph    
Visibility 10 miles    
Events      
Averages and records for this station are not official NWS values.
T = Trace of Precipitation, MM = Missing Value Source: NWS Daily Summary

Daily Weather History Graph

Daily Weather History Graph

Search for Another Location

Airport or City:

Trip Planner

Search our weather history database for the weather conditions in past years. The results will help you decide how hot, cold, wet, or windy it might be!

Date:

Astronomy

Jul. 07, 2013 Rise Set
Actual Time 6:15 AM CDT 8:56 PM CDT
Civil Twilight 5:44 AM CDT 9:27 PM CDT
Nautical Twilight 5:05 AM CDT 10:06 PM CDT
Astronomical Twilight 4:21 AM CDT 10:50 PM CDT
Moon 5:51 AM CDT (7/7) 8:23 PM CDT (7/7)
Length of Visible Light 15h 43m
Length of Day
14h 41m
Waning Crescent, 0% of the Moon is Illuminated
Jul 7
Waning Crescent
Jul 8
New
Jul 15
First Quarter
Jul 22
Full
Jul 29
Last Quarter

Hourly Weather History & Observations

Time (CDT) Temp. Heat Index Dew Point Humidity Pressure Visibility Wind Dir Wind Speed Gust Speed Precip Events Conditions
12:52 AM 78.1 °F - 64.0 °F 62% 29.84 in 9.0 mi South 17.3 mph - N/A   Clear
1:52 AM 78.1 °F - 64.0 °F 62% 29.85 in 9.0 mi SSE 13.8 mph - N/A   Clear
2:52 AM 75.9 °F - 63.0 °F 64% 29.86 in 9.0 mi SSE 9.2 mph - N/A   Partly Cloudy
3:52 AM 75.9 °F - 63.0 °F 64% 29.86 in 9.0 mi South 11.5 mph - N/A   Clear
4:52 AM 75.9 °F - 62.1 °F 62% 29.87 in 10.0 mi South 13.8 mph - N/A   Clear
5:52 AM 75.0 °F - 61.0 °F 62% 29.86 in 10.0 mi South 16.1 mph - N/A   Clear
6:52 AM 75.0 °F - 61.0 °F 62% 29.87 in 9.0 mi South 13.8 mph - N/A   Clear
7:52 AM 75.9 °F - 61.0 °F 60% 29.88 in 9.0 mi South 15.0 mph 23.0 mph N/A   Clear
8:52 AM 79.0 °F - 61.0 °F 54% 29.90 in 10.0 mi South 17.3 mph - N/A   Clear
9:52 AM 84.9 °F 85.0 °F 61.0 °F 44% 29.89 in 10.0 mi SSW 19.6 mph - N/A   Clear
10:52 AM 88.0 °F 87.9 °F 61.0 °F 40% 29.88 in 10.0 mi South 23.0 mph - N/A   Clear
11:52 AM 91.9 °F 91.5 °F 60.1 °F 34% 29.88 in 10.0 mi South 20.7 mph 27.6 mph N/A   Clear
12:52 PM 95.0 °F 95.2 °F 61.0 °F 32% 29.87 in 10.0 mi South 18.4 mph 26.5 mph N/A   Clear
1:52 PM 96.1 °F 96.0 °F 60.1 °F 30% 29.86 in 10.0 mi South 18.4 mph 28.8 mph N/A   Clear
2:52 PM 98.1 °F 98.1 °F 60.1 °F 28% 29.85 in 10.0 mi South 21.9 mph 32.2 mph N/A   Clear
3:52 PM 98.1 °F 96.8 °F 57.0 °F 25% 29.83 in 10.0 mi South 23.0 mph 28.8 mph N/A   Clear
4:52 PM 99.0 °F 97.3 °F 55.0 °F 23% 29.82 in 10.0 mi South 19.6 mph - N/A   Clear
5:52 PM 99.0 °F 97.7 °F 55.9 °F 24% 29.81 in 10.0 mi SSW 20.7 mph 28.8 mph N/A   Clear
6:52 PM 98.1 °F 96.4 °F 55.9 °F 24% 29.81 in 10.0 mi South 21.9 mph 27.6 mph N/A   Clear
7:52 PM 93.9 °F 92.6 °F 57.0 °F 29% 29.83 in 10.0 mi SSE 17.3 mph - N/A   Clear
8:52 PM 90.0 °F 88.1 °F 55.9 °F 31% 29.85 in 10.0 mi SSE 12.7 mph - N/A   Clear
9:52 PM 87.1 °F 87.5 °F 62.1 °F 43% 29.87 in 10.0 mi SSE 15.0 mph - N/A   Clear
10:52 PM 86.0 °F 86.8 °F 63.0 °F 46% 29.89 in 10.0 mi South 18.4 mph 24.2 mph N/A   Clear
11:52 PM 84.0 °F 84.5 °F 62.1 °F 47% 29.90 in 10.0 mi South 13.8 mph - N/A   Clear